Regional Weather Roundup
Issued by NWS

Home | Current Version | Previous Version | Text Only | Print | Product List | Glossary On
Versions: 1 2 3 4 5 6 7 8 9 10 11 12 13 14 15 16 17 18 19 20 21 22 23 24 25 26 27 28 29 30 31 32 33 34 35 36 37 38 39 40 41 42 43 44 45 46 47 48 49 50
000
ASUS44 KOUN 291110
RWROK

WEATHER ROUNDUP FOR OKLAHOMA
NATIONAL WEATHER SERVICE NORMAN OK
600 AM CDT TUE JUL 29 2014

NOTE: "FAIR" INDICATES FEW OR NO CLOUDS BELOW 12,000 FEET WITH NO
      SIGNIFICANT WEATHER AND/OR OBSTRUCTIONS TO VISIBILITY.

OKZ001>007-009>012-014-015-017-291200-
NORTHWEST OKLAHOMA AND THE PANHANDLE

CITY           SKY/WX    TMP DP  RH WIND       PRES   REMARKS
GAGE           CLOUDY    68  63  84 S3        30.19R
ENID/WOODRING  PTCLDY    64  63  94 CALM      30.14S
$$

OKZ016-021>023-033>039-044-045-291200-
SOUTHWEST OKLAHOMA

CITY           SKY/WX    TMP DP  RH WIND       PRES   REMARKS
LAWTON/REGL    CLOUDY    73  68  84 CALM      30.14S
LAWTON/FT SILL CLOUDY    73  69  88 N2        30.14S
FREDERICK      CLOUDY    74  72  93 NE3       30.12R
CLINTON        CLOUDY    73  64  73 SE3       30.19S
HOBART         CLOUDY    72  69  90 E3        30.16F
ALTUS AFB      CLOUDY    72  72 100 NW1       30.16S
$$

OKZ018>020-024>031-291200-
CENTRAL OKLAHOMA

CITY           SKY/WX    TMP DP  RH WIND       PRES   REMARKS
OKLAHOMA CITY  CLOUDY    72  65  78 S3        30.15S
OKC/WILEY POST CLOUDY    73  65  75 CALM      30.15S
OKC/TINKER AFB CLOUDY    73  60  63 SE5       30.15S
STILLWATER     CLEAR     64  61  90 CALM      30.14S
GUTHRIE        MOCLDY    70  64  81 CALM      30.15S
$$

OKZ008-013-054>072-291200-
NORTHEAST OKLAHOMA

CITY           SKY/WX    TMP DP  RH WIND       PRES   REMARKS
TULSA          PTCLDY    64  61  90 NW5       30.14R
TULSA/JONES    CLEAR     63  63 100 CALM      30.15R
PONCA CITY     CLEAR     62  59  90 CALM      30.15S
BARTLESVILLE   CLEAR     59  58  96 CALM      30.17S
MUSKOGEE       CLEAR     64  61  90 CALM      30.15R
$$

OKZ032-040>043-046>053-073>077-291200-
SOUTH CENTRAL/SOUTHEAST OKLAHOMA

CITY           SKY/WX    TMP DP  RH WIND       PRES   REMARKS
ARDMORE/DWNTWN CLOUDY    68  64  88 CALM      30.12F
MCALESTER      MOCLDY    63  61  93 CALM      30.13F
$$




USA.gov is the U.S. government's official web portal to all federal, state and local government web resources and services.